Location: Erfurt
(50.9688°N, 11.0193°E)
Time: 12:34:45
(UTC+01:00)

Amateur Radio Satellites - All Passes

Search period start: 20 November 2017 12:04
Search period end: 21 November 2017 12:04
Location: Erfurt, 50.9688°N, 11.0193°E

Satellite Date Start Highest point End Downlink Frequencies (MHz)
Time Altitude Azimuth
QB50P2 20 Nov 12:23:59 12:27:04 19° 269° (W) 12:30:08 145.880/145.840
M-CUBED/EXP-1 PRIME 20 Nov 12:25:04 12:27:46 19° 53° (NE) 12:30:37 437.505
BEESAT 2 20 Nov 12:28:03 12:32:05 66° 234° (SW) 12:36:03 435.950
BUGSAT 1 20 Nov 12:36:17 12:40:26 62° 258° (WSW) 12:44:35 437.445
AO-85 20 Nov 12:38:03 12:42:37 76° 47° (NE) 12:47:32 145.980
AO-7 20 Nov 12:40:03 12:46:51 30° 46° (NE) 12:53:41 .
LO-87 20 Nov 12:40:05 12:42:59 24° 295° (WNW) 12:45:52 145.935 - 145.965
DX 1 20 Nov 12:44:59 12:46:23 11° 86° (E) 12:47:46 434.975-435.025
BEESAT 3 20 Nov 12:58:52 13:00:42 13° 249° (WSW) 13:02:30 437.485
Oscar 19 20 Nov 12:59:46 13:04:53 73° 256° (WSW) 13:10:03 437.125/150
SPROUT 20 Nov 13:00:31 13:04:48 88° 97° (E) 13:09:03 437.525
ESTCUBE 1 20 Nov 13:04:06 13:08:01 29° 296° (WNW) 13:11:56 437.505/2401.250
ITAMSAT 1 20 Nov 13:12:46 13:15:57 17° 52° (NE) 13:19:08 435.822/435.867
Gurwin Techsat 1B 20 Nov 13:14:55 13:20:14 75° 256° (WSW) 13:25:36 435.225
50 SAT 20 Nov 13:16:26 13:18:55 20° 94° (E) 13:21:21 437.505
UKube-1 20 Nov 13:28:20 13:31:28 19° 91° (E) 13:34:35 .
VELOX 1 20 Nov 13:29:32 13:34:01 78° 287° (WNW) 13:38:28 145.980
O/OREOS (USA 219) 20 Nov 13:30:18 13:34:26 33° 107° (ESE) 13:38:34 437.305
YUBILEINY 20 Nov 13:39:11 13:41:22 11° 34° (NE) 13:43:34 435.215
M-CUBED/EXP-1 PRIME 20 Nov 13:58:17 14:01:48 52° 254° (WSW) 14:05:38 437.505
DX 1 20 Nov 14:18:50 14:23:16 85° 107° (ESE) 14:27:39 434.975-435.025
AO-85 20 Nov 14:19:10 14:22:39 21° 245° (WSW) 14:26:19 145.980
DOVE 4 20 Nov 14:21:28 14:23:31 12° 50° (NE) 14:25:34 437.250
MOZHAYETS 4 20 Nov 14:27:49 14:30:48 17° 89° (E) 14:33:47
AO-7 20 Nov 14:30:26 14:38:45 89° 69° (ENE) 14:47:08 .
SPROUT 20 Nov 14:37:51 14:40:04 14° 304° (NW) 14:42:16 437.525
Oscar 19 20 Nov 14:43:25 14:45:09 12° 276° (W) 14:46:53 437.125/150
50 SAT 20 Nov 14:48:11 14:51:04 29° 292° (WNW) 14:53:56 437.505
ITAMSAT 1 20 Nov 14:49:24 14:54:39 80° 72° (ENE) 14:59:55 435.822/435.867
Gurwin Techsat 1B 20 Nov 14:58:53 15:01:07 13° 276° (W) 15:03:22 435.225
UKube-1 20 Nov 15:03:34 15:07:50 56° 290° (WNW) 15:12:04 .
VELOX 1 20 Nov 15:07:41 15:09:44 13° 306° (NW) 15:11:45 145.980
O/OREOS (USA 219) 20 Nov 15:09:29 15:13:48 38° 307° (NW) 15:18:08 437.305
BEESAT 20 Nov 15:31:43 15:36:21 47° 100° (E) 15:40:55 436.000
YUBILEINY 20 Nov 15:33:36 15:41:41 37° 63° (ENE) 15:49:41 435.215
NO-84 20 Nov 15:35:42 15:38:43 23° 134° (SE) 15:41:54 435.350 FM
ITUPSAT 1 20 Nov 15:40:36 15:45:18 55° 101° (E) 15:49:58 437.325
HO-68 20 Nov 15:49:12 15:53:22 17° 41° (NE) 15:57:32 435.675
XW-2C 20 Nov 15:53:28 15:54:40 11° 57° (ENE) 15:55:53 145.795 - 145.815
LilacSat-2 20 Nov 15:53:39 15:55:13 12° 58° (ENE) 15:56:46 437.200
DOVE 4 20 Nov 15:55:07 16:00:05 58° 70° (ENE) 16:05:17 437.250
DX 1 20 Nov 15:56:17 15:58:51 15° 304° (NW) 16:01:23 434.975-435.025
MOZHAYETS 4 20 Nov 16:03:53 16:08:26 68° 288° (WNW) 16:12:59
XW-2F 20 Nov 16:04:28 16:06:20 13° 59° (ENE) 16:08:13 145.980 - 146.000
CUBESAT XI-V 20 Nov 16:12:21 16:16:48 42° 98° (E) 16:21:16 437.345
CUTE-I 20 Nov 16:14:39 16:18:56 25° 58° (ENE) 16:23:16 437.470
AO-7 20 Nov 16:26:09 16:32:36 25° 270° (W) 16:39:07 .
KKS-1 20 Nov 16:28:02 16:30:44 16° 89° (E) 16:33:25 437.445
ITAMSAT 1 20 Nov 16:31:15 16:34:45 18° 271° (W) 16:38:14 435.822/435.867
KAITUO 1B 20 Nov 16:33:14 16:35:58 20° 63° (ENE) 16:38:43 145.475/437.950
XW-2D 20 Nov 16:44:34 16:47:58 34° 68° (ENE) 16:51:24 145.860 - 145.880
O/OREOS (USA 219) 20 Nov 16:53:57 16:54:34 10° 330° (NNW) 16:55:11 437.305
STARS 20 Nov 16:56:01 16:57:51 12° 87° (E) 16:59:41 437.465
XW-2B 20 Nov 16:59:08 17:02:43 47° 71° (ENE) 17:06:20 145.730 - 145.750
CUTE 1.7 + AOD 2 20 Nov 17:06:21 17:09:18 19° 60° (ENE) 17:12:16 437.475
BEESAT 20 Nov 17:09:54 17:13:54 27° 299° (WNW) 17:17:53 436.000
NO-84 20 Nov 17:11:44 17:15:38 90° 193° (SSW) 17:19:49 435.350 FM
UWE-3 20 Nov 17:17:07 17:17:50 10° 54° (NE) 17:18:34 435.000/436.395/437.385
NUDT-PHONESAT 20 Nov 17:18:43 17:22:17 54° 72° (ENE) 17:25:53 437.300
ITUPSAT 1 20 Nov 17:19:01 17:22:49 24° 300° (WNW) 17:26:36 437.325
XW-2C 20 Nov 17:24:30 17:28:14 89° 254° (WSW) 17:32:01 145.795 - 145.815
LilacSat-2 20 Nov 17:25:09 17:28:54 82° 256° (WSW) 17:32:43 437.200
YUBILEINY 20 Nov 17:30:23 17:39:08 66° 267° (W) 17:47:50 435.215
HO-68 20 Nov 17:32:41 17:39:38 55° 63° (ENE) 17:46:38 435.675
DOVE 4 20 Nov 17:33:59 17:38:07 25° 270° (W) 17:42:24 437.250
XW-2F 20 Nov 17:36:14 17:39:57 71° 259° (W) 17:43:41 145.980 - 146.000
SEEDS 20 Nov 17:38:25 17:41:44 24° 63° (ENE) 17:45:06 437.485
MOZHAYETS 4 20 Nov 17:43:05 17:44:46 12° 307° (NW) 17:46:26
AAUSAT CUBESAT 2 20 Nov 17:49:23 17:51:51 16° 58° (ENE) 17:54:19 437.432
CUBESAT XI-V 20 Nov 17:50:00 17:54:03 30° 296° (WNW) 17:58:06 437.345
CUBEBUG 2 20 Nov 17:50:37 17:54:37 31° 66° (ENE) 17:58:33 437.445
CUTE-I 20 Nov 17:53:15 17:58:35 65° 258° (WSW) 18:03:58 437.470
AO-73 20 Nov 18:00:08 18:02:02 13° 56° (NE) 18:03:54 145.935
KKS-1 20 Nov 18:03:19 18:07:49 73° 287° (WNW) 18:12:15 437.445
KAITUO 1B 20 Nov 18:06:13 18:09:42 41° 262° (W) 18:13:14 145.475/437.950
RS-15 20 Nov 18:13:36 18:24:25 39° 108° (ESE) 18:35:09 29.354- 29.394
Oscar 11 20 Nov 18:17:27 18:19:35 14° 56° (NE) 18:21:43 .
XW-2D 20 Nov 18:19:13 18:22:13 23° 267° (W) 18:25:17 145.860 - 145.880
STRAND 1 20 Nov 18:21:20 18:23:25 12° 85° (E) 18:25:29 437.568
STARS 20 Nov 18:30:24 18:34:50 88° 299° (WNW) 18:39:14 437.465
XW-2B 20 Nov 18:34:38 18:37:09 17° 269° (W) 18:39:42 145.730 - 145.750
CUTE 1.7 + AOD 2 20 Nov 18:40:36 18:44:45 59° 259° (W) 18:48:57 437.475
ZACube-1 20 Nov 18:42:16 18:46:06 32° 66° (ENE) 18:49:51 437.345
UWE-3 20 Nov 18:49:06 18:53:29 64° 72° (ENE) 18:57:47 435.000/436.395/437.385
NO-84 20 Nov 18:49:21 18:53:18 48° 355° (N) 18:57:26 435.350 FM
NUDT-PHONESAT 20 Nov 18:54:25 18:56:28 14° 270° (W) 18:58:32 437.300
XW-2A 20 Nov 18:56:21 18:59:39 69° 74° (ENE) 19:02:59 145.665 - 145.685
SEEDS 20 Nov 19:13:13 19:17:12 43° 262° (W) 19:21:14 437.485
HO-68 20 Nov 19:20:59 19:27:37 39° 264° (W) 19:34:18 435.675
AAUSAT CUBESAT 2 20 Nov 19:22:39 19:26:46 74° 258° (WSW) 19:30:57 437.432
CUBEBUG 2 20 Nov 19:26:57 19:31:11 36° 264° (W) 19:35:19 437.445
YUBILEINY 20 Nov 19:29:15 19:34:08 16° 290° (WNW) 19:39:02 435.215
AO-73 20 Nov 19:33:20 19:37:38 85° 75° (ENE) 19:41:52 145.935
CUTE-I 20 Nov 19:38:28 19:39:42 11° 277° (W) 19:40:56 437.470
KKS-1 20 Nov 19:41:44 19:43:35 12° 307° (NW) 19:45:26 437.445
Max Valier Satellite 20 Nov 19:47:18 19:49:16 14° 60° (ENE) 19:51:14 145.860
EO-88 20 Nov 19:48:58 19:49:54 11° 57° (ENE) 19:50:51 145.990 - 145.960
Oscar 11 20 Nov 19:50:46 19:55:05 88° 74° (ENE) 19:59:25 .
STRAND 1 20 Nov 19:58:20 20:03:29 77° 104° (ESE) 20:08:36 437.568
DELFI C3 20 Nov 20:02:37 20:06:03 28° 65° (ENE) 20:09:29 145.870
STARS 20 Nov 20:08:10 20:10:32 14° 305° (NW) 20:12:53 437.465
FO-29 20 Nov 20:13:46 20:21:09 41° 93° (E) 20:28:14 435.910
ZACube-1 20 Nov 20:18:28 20:22:22 32° 264° (W) 20:26:12 437.345
RS-15 20 Nov 20:23:31 20:35:57 83° 313° (NW) 20:48:11 29.354- 29.394
NO-84 20 Nov 20:26:58 20:31:07 61° 16° (NNE) 20:35:22 435.350 FM
UWE-3 20 Nov 20:27:26 20:30:21 17° 270° (W) 20:33:13 435.000/436.395/437.385
ESTCUBE 1 20 Nov 20:58:08 20:59:34 11° 52° (NE) 21:00:59 437.505/2401.250
AO-73 20 Nov 21:12:43 21:14:27 12° 273° (W) 21:16:10 145.935
Max Valier Satellite 20 Nov 21:19:01 21:22:38 64° 258° (WSW) 21:26:18 145.860
EO-88 20 Nov 21:19:19 21:22:56 89° 256° (WSW) 21:26:36 145.990 - 145.960
nSIGHT-1 20 Nov 21:20:38 21:22:52 18° 142° (SE) 21:25:08 .
Oscar 11 20 Nov 21:30:12 21:31:52 12° 274° (W) 21:33:31 .
PRISM 20 Nov 21:31:57 21:32:53 11° 86° (E) 21:33:48 437.425
DELFI C3 20 Nov 21:37:08 21:40:43 32° 264° (W) 21:44:20 145.870
STRAND 1 20 Nov 21:38:25 21:42:08 21° 304° (NW) 21:45:50 437.568
SO-50 20 Nov 21:41:15 21:44:41 22° 115° (ESE) 21:48:09 436.795
LO-87 20 Nov 21:46:56 21:50:04 28° 67° (ENE) 21:53:12 145.935 - 145.965
UNISAT 6 20 Nov 21:50:30 21:54:37 42° 98° (E) 21:58:40 437.425
TIGRISAT 20 Nov 21:55:05 21:59:12 43° 98° (E) 22:03:15 435.000
O/OREOS (USA 219) 20 Nov 21:55:52 21:59:45 26° 47° (NE) 22:03:35 437.305
FO-29 20 Nov 21:58:42 22:06:25 58° 294° (WNW) 22:13:49 435.910
ISS 20 Nov 22:01:12 22:04:03 28° 148° (SSE) 22:06:56 437.550
NO-84 20 Nov 22:04:24 22:08:31 49° 216° (SW) 22:12:39 435.350 FM
SPROUT 20 Nov 22:24:05 22:26:59 18° 59° (ENE) 22:29:54 437.525
ESTCUBE 1 20 Nov 22:31:04 22:35:30 66° 72° (ENE) 22:39:59 437.505/2401.250
RS-15 20 Nov 22:38:32 22:50:18 46° 343° (NNW) 23:01:44 29.354- 29.394
nSIGHT-1 20 Nov 22:55:29 22:58:41 65° 161° (SSE) 23:01:53 .
VELOX 1 20 Nov 22:55:55 22:59:32 25° 62° (ENE) 23:03:10 145.980
PRISM 20 Nov 23:04:36 23:08:48 86° 101° (E) 23:12:59 437.425
DUCHIFAT 1 20 Nov 23:18:42 23:20:51 14° 88° (E) 23:22:59 145.980
SO-50 20 Nov 23:20:17 23:24:44 66° 315° (NW) 23:29:17 436.795
LO-87 20 Nov 23:20:21 23:23:27 26° 265° (W) 23:26:33 145.935 - 145.965
EO-79 20 Nov 23:24:21 23:27:27 20° 91° (E) 23:30:31 145.935-145.965
UNISAT 6 20 Nov 23:27:37 23:31:08 25° 297° (WNW) 23:34:37 437.425
NANOSAT C BR1 20 Nov 23:28:09 23:31:11 19° 91° (E) 23:34:12 145.865
TIGRISAT 20 Nov 23:32:13 23:35:42 24° 298° (WNW) 23:39:09 435.000
PCSat 20 Nov 23:34:44 23:37:58 16° 105° (ESE) 23:41:13 145.827
O/OREOS (USA 219) 20 Nov 23:35:00 23:39:27 53° 249° (WSW) 23:43:52 437.305
ISS 20 Nov 23:37:01 23:40:18 86° 164° (SSE) 23:43:35 437.550
POLYITAN 1 20 Nov 23:39:07 23:42:42 27° 94° (E) 23:46:15 437.675
NO-84 20 Nov 23:43:41 23:45:05 11° 234° (SW) 23:46:29 435.350 FM
DX 1 20 Nov 23:44:13 23:47:27 20° 59° (ENE) 23:50:41 434.975-435.025
FO-29 20 Nov 23:44:55 23:49:53 19° 316° (NW) 23:54:50 435.910
50 SAT 20 Nov 23:48:34 23:50:40 16° 62° (ENE) 23:52:47 437.505
AIST 2D 20 Nov 23:49:32 23:53:04 80° 285° (WNW) 23:56:36 435.315
SPROUT 20 Nov 23:58:11 00:02:26 65° 258° (WSW) 00:06:44 437.525
QB50P2 21 Nov 00:02:03 00:06:10 49° 100° (E) 00:10:14 145.880/145.840
ESTCUBE 1 21 Nov 00:09:49 00:12:46 17° 271° (W) 00:15:45 437.505/2401.250
BUGSAT 1 21 Nov 00:14:19 00:16:16 13° 88° (E) 00:18:11 437.445
UKube-1 21 Nov 00:27:04 00:30:53 31° 64° (ENE) 00:34:43 .
VELOX 1 21 Nov 00:31:27 00:35:44 47° 260° (W) 00:40:04 145.980
nSIGHT-1 21 Nov 00:31:43 00:34:56 76° 1° (N) 00:38:09 .
PRISM 21 Nov 00:41:17 00:43:29 14° 304° (NW) 00:45:40 437.425
DUCHIFAT 1 21 Nov 00:52:51 00:57:01 74° 287° (WNW) 01:01:10 145.980
RS-15 21 Nov 00:54:26 01:06:05 46° 16° (NNE) 01:17:11 29.354- 29.394
EO-79 21 Nov 00:59:24 01:03:30 51° 290° (WNW) 01:07:33 145.935-145.965
SO-50 21 Nov 01:02:34 01:06:01 21° 338° (NNW) 01:09:31 436.795
NANOSAT C BR1 21 Nov 01:03:07 01:07:12 52° 289° (WNW) 01:11:15 145.865
Oscar 19 21 Nov 01:06:25 01:10:47 27° 93° (E) 01:15:09 437.125/150
BEESAT 21 Nov 01:07:21 01:10:23 17° 55° (NE) 01:13:26 436.000
ISS 21 Nov 01:13:33 01:16:51 82° 7° (N) 01:20:07 437.550
POLYITAN 1 21 Nov 01:14:42 01:18:34 37° 293° (WNW) 01:22:25 437.675
PCSat 21 Nov 01:15:08 01:20:33 83° 125° (SE) 01:26:02 145.827
ITUPSAT 1 21 Nov 01:16:09 01:19:32 20° 57° (ENE) 01:22:55 437.325
DX 1 21 Nov 01:18:56 01:23:15 59° 259° (WSW) 01:27:37 434.975-435.025
50 SAT 21 Nov 01:19:24 01:22:29 40° 260° (W) 01:25:37 437.505
Gurwin Techsat 1B 21 Nov 01:26:12 01:30:51 30° 94° (E) 01:35:28 435.225
MOZHAYETS 4 21 Nov 01:34:04 01:38:01 29° 64° (ENE) 01:41:58
QB50P2 21 Nov 01:38:25 01:41:40 22° 299° (WNW) 01:44:54 145.880/145.840
CUBESAT XI-V 21 Nov 01:46:20 01:48:15 12° 53° (NE) 01:50:10 437.345
BUGSAT 1 21 Nov 01:48:05 01:52:08 73° 288° (WNW) 01:56:09 437.445
UKube-1 21 Nov 02:02:54 02:06:51 34° 263° (W) 02:10:51 .
nSIGHT-1 21 Nov 02:07:59 02:11:10 60° 200° (SSW) 02:14:20 .
AO-7 21 Nov 02:27:11 02:33:16 22° 88° (E) 02:39:20 .
DUCHIFAT 1 21 Nov 02:30:39 02:31:56 11° 306° (NW) 02:33:14 145.980
BEESAT 21 Nov 02:42:46 02:47:33 85° 255° (WSW) 02:52:22 436.000
Oscar 19 21 Nov 02:45:22 02:50:22 51° 293° (WNW) 02:55:22 437.125/150
SO-50 21 Nov 02:45:27 02:48:06 15° 3° (N) 02:50:46 436.795
ISS 21 Nov 02:50:06 02:53:13 41° 206° (SSW) 02:56:18 437.550
BEESAT 3 21 Nov 02:50:53 02:54:18 27° 119° (ESE) 02:57:44 437.485
ITUPSAT 1 21 Nov 02:52:05 02:56:52 73° 256° (WSW) 03:01:40 437.325
ITAMSAT 1 21 Nov 02:57:59 03:01:39 19° 89° (E) 03:05:17 435.822/435.867
PCSat 21 Nov 02:59:56 03:04:35 28° 327° (NNW) 03:09:15 145.827
M-CUBED/EXP-1 PRIME 21 Nov 03:04:53 03:09:15 50° 106° (ESE) 03:13:46 437.505
Gurwin Techsat 1B 21 Nov 03:05:54 03:11:01 49° 293° (WNW) 03:16:07 435.225
RS-15 21 Nov 03:08:14 03:20:22 83° 47° (NE) 03:31:48 29.354- 29.394
MOZHAYETS 4 21 Nov 03:10:46 03:15:03 40° 263° (W) 03:19:22
CUBESAT XI-V 21 Nov 03:20:14 03:24:47 71° 73° (ENE) 03:29:26 437.345
BUGSAT 1 21 Nov 03:25:49 03:26:45 11° 306° (NW) 03:27:39 437.445
KKS-1 21 Nov 03:30:16 03:34:04 28° 62° (ENE) 03:37:52 437.445
nSIGHT-1 21 Nov 03:44:53 03:46:56 16° 219° (SW) 03:48:58 .
DOVE 4 21 Nov 03:50:48 03:53:01 13° 82° (E) 03:55:11 437.250
STARS 21 Nov 03:56:27 03:59:54 22° 60° (ENE) 04:03:20 437.465
BEESAT 2 21 Nov 04:00:31 04:04:18 40° 122° (ESE) 04:08:07 435.950
AO-7 21 Nov 04:18:54 04:27:18 82° 109° (ESE) 04:35:42 .
BEESAT 21 Nov 04:23:55 04:26:04 13° 274° (W) 04:28:12 436.000
SO-50 21 Nov 04:26:18 04:30:05 25° 27° (NNE) 04:33:55 436.795
Oscar 19 21 Nov 04:27:19 04:28:35 11° 313° (NW) 04:29:52 437.125/150
BEESAT 3 21 Nov 04:27:48 04:31:41 46° 318° (NW) 04:35:34 437.485
ITUPSAT 1 21 Nov 04:34:27 04:35:33 11° 275° (W) 04:36:40 437.325
ITAMSAT 1 21 Nov 04:36:27 04:41:41 74° 289° (WNW) 04:46:52 435.822/435.867
AO-85 21 Nov 04:37:37 04:41:14 37° 121° (ESE) 04:45:02 145.980
M-CUBED/EXP-1 PRIME 21 Nov 04:39:40 04:43:25 27° 303° (WNW) 04:47:16 437.505
YUBILEINY 21 Nov 04:42:01 04:49:29 33° 81° (E) 04:57:01 435.215
PCSat 21 Nov 04:46:45 04:49:50 15° 353° (N) 04:52:55 145.827
Gurwin Techsat 1B 21 Nov 04:48:31 04:49:47 11° 314° (NW) 04:51:04 435.225
FO-29 21 Nov 04:53:03 04:54:31 11° 32° (NNE) 04:56:01 435.910
CUBESAT XI-V 21 Nov 04:59:46 05:02:41 17° 272° (W) 05:05:38 437.345
KKS-1 21 Nov 05:06:11 05:10:27 42° 261° (W) 05:14:45 437.445
RS-15 21 Nov 05:21:26 05:31:41 37° 253° (WSW) 05:41:31 29.354- 29.394
DOVE 4 21 Nov 05:26:21 05:31:38 76° 102° (ESE) 05:36:41 437.250
STARS 21 Nov 05:31:35 05:35:55 53° 259° (W) 05:40:18 437.465
KAITUO 1B 21 Nov 05:32:57 05:34:59 14° 89° (E) 05:36:59 145.475/437.950
BEESAT 2 21 Nov 05:38:21 05:42:05 35° 322° (NW) 05:45:52 435.950
STRAND 1 21 Nov 05:40:59 05:45:28 31° 62° (ENE) 05:49:58 437.568
XW-2D 21 Nov 05:45:48 05:49:02 25° 94° (E) 05:52:14 145.860 - 145.880
XW-2B 21 Nov 06:00:25 06:03:55 34° 97° (E) 06:07:25 145.730 - 145.750
CUTE-I 21 Nov 06:05:10 06:10:05 35° 96° (E) 06:14:57 437.470
SO-50 21 Nov 06:06:30 06:11:10 86° 51° (NE) 06:15:52 436.795
BEESAT 3 21 Nov 06:07:42 06:10:08 15° 340° (NNW) 06:12:35 437.485
AO-7 21 Nov 06:12:17 06:19:22 33° 312° (NW) 06:26:28 .
NUDT-PHONESAT 21 Nov 06:17:18 06:20:47 37° 98° (E) 06:24:15 437.300
ITAMSAT 1 21 Nov 06:17:22 06:20:19 15° 309° (NW) 06:23:17 435.822/435.867
AO-85 21 Nov 06:17:56 06:21:38 36° 323° (NW) 06:25:35 145.980
CUTE 1.7 + AOD 2 21 Nov 06:20:57 06:23:52 18° 90° (E) 06:26:45 437.475
XW-2C 21 Nov 06:25:49 06:29:37 67° 102° (ESE) 06:33:25 145.795 - 145.815
LilacSat-2 21 Nov 06:27:15 06:31:06 74° 103° (ESE) 06:34:56 437.200
FO-29 21 Nov 06:31:13 06:37:15 33° 55° (NE) 06:43:48 435.910
PCSat 21 Nov 06:31:42 06:35:25 18° 19° (NNE) 06:39:08 145.827
YUBILEINY 21 Nov 06:36:55 06:45:40 70° 285° (WNW) 06:54:31 435.215
XW-2F 21 Nov 06:36:56 06:40:45 83° 107° (ESE) 06:44:33 145.980 - 146.000
HO-68 21 Nov 06:42:20 06:48:50 35° 95° (E) 06:55:16 435.675
SEEDS 21 Nov 06:51:56 06:55:17 22° 92° (E) 06:58:37 437.485
AAUSAT CUBESAT 2 21 Nov 07:00:58 07:02:57 13° 87° (E) 07:04:57 437.432
DOVE 4 21 Nov 07:04:51 07:08:44 21° 303° (WNW) 07:12:30 437.250
KAITUO 1B 21 Nov 07:05:37 07:09:20 61° 287° (WNW) 07:13:03 145.475/437.950
CUBEBUG 2 21 Nov 07:12:22 07:16:09 31° 95° (E) 07:19:51 437.445
AO-73 21 Nov 07:18:13 07:19:20 11° 86° (E) 07:20:27 145.935
BEESAT 2 21 Nov 07:18:46 07:20:56 14° 345° (NNW) 07:23:06 435.950
STRAND 1 21 Nov 07:19:31 07:24:29 47° 261° (W) 07:29:29 437.568
XW-2D 21 Nov 07:19:49 07:23:14 32° 292° (WNW) 07:26:38 145.860 - 145.880
UNISAT 6 21 Nov 07:20:30 07:22:09 12° 54° (NE) 07:23:47 437.425
TIGRISAT 21 Nov 07:24:55 07:26:36 12° 54° (NE) 07:28:17 435.000
Oscar 11 21 Nov 07:34:38 07:36:20 12° 86° (E) 07:38:01 .
XW-2B 21 Nov 07:34:50 07:37:58 24° 295° (WNW) 07:41:06 145.730 - 145.750
CUTE-I 21 Nov 07:45:10 07:50:14 43° 295° (WNW) 07:55:15 437.470
XW-2A 21 Nov 07:45:25 07:48:31 34° 97° (E) 07:51:38 145.665 - 145.685
BEESAT 3 21 Nov 07:47:53 07:49:16 11° 4° (N) 07:50:38 437.485
SO-50 21 Nov 07:48:03 07:51:03 17° 247° (WSW) 07:54:04 436.795
NUDT-PHONESAT 21 Nov 07:51:32 07:54:27 22° 296° (WNW) 07:57:21 437.300
CUTE 1.7 + AOD 2 21 Nov 07:55:51 08:00:04 59° 288° (WNW) 08:04:16 437.475
AO-85 21 Nov 08:00:47 08:03:15 15° 347° (NNW) 08:05:47 145.980
ZACube-1 21 Nov 08:01:02 08:04:46 32° 95° (E) 08:08:30 437.345
XW-2C 21 Nov 08:01:12 08:03:21 15° 300° (WNW) 08:05:29 145.795 - 145.815
LilacSat-2 21 Nov 08:02:54 08:04:51 14° 301° (WNW) 08:06:50 437.200
AO-7 21 Nov 08:06:19 08:09:38 13° 337° (NNW) 08:12:57 .
UWE-3 21 Nov 08:09:45 08:13:55 70° 102° (ESE) 08:18:02 435.000/436.395/437.385
XW-2F 21 Nov 08:12:41 08:14:17 12° 302° (WNW) 08:15:53 145.980 - 146.000
FO-29 21 Nov 08:14:56 08:21:42 71° 258° (WSW) 08:29:18 435.910
PCSat 21 Nov 08:14:56 08:20:11 46° 43° (NE) 08:25:23 145.827
PRISM 21 Nov 08:24:52 08:27:30 17° 58° (ENE) 08:30:10 437.425
SEEDS 21 Nov 08:27:07 08:31:11 45° 291° (WNW) 08:35:15 437.485
HO-68 21 Nov 08:29:53 08:36:57 60° 295° (WNW) 08:43:58 435.675
AAUSAT CUBESAT 2 21 Nov 08:34:45 08:38:58 78° 284° (WNW) 08:43:08 437.432
YUBILEINY 21 Nov 08:38:15 08:44:25 21° 310° (NW) 08:50:40 435.215
CUBEBUG 2 21 Nov 08:49:03 08:52:46 31° 294° (WNW) 08:56:23 437.445
AO-73 21 Nov 08:52:03 08:56:13 89° 261° (W) 09:00:22 145.935
UNISAT 6 21 Nov 08:53:34 08:58:06 70° 73° (ENE) 09:02:33 437.425
TIGRISAT 21 Nov 08:58:00 09:02:32 71° 73° (ENE) 09:06:59 435.000
BEESAT 2 21 Nov 08:58:31 09:00:18 12° 9° (N) 09:02:05 435.950
DELFI C3 21 Nov 09:08:40 09:11:53 23° 93° (E) 09:15:05 145.870
Oscar 11 21 Nov 09:08:45 09:13:07 89° 278° (W) 09:17:26 .
XW-2A 21 Nov 09:18:33 09:21:03 19° 296° (WNW) 09:23:32 145.665 - 145.685
BEESAT 3 21 Nov 09:25:10 09:28:14 21° 28° (NNE) 09:31:17 437.485
QB50P2 21 Nov 09:26:58 09:28:10 11° 54° (NE) 09:29:22 145.880/145.840
ZACube-1 21 Nov 09:37:24 09:41:03 30° 294° (WNW) 09:44:40 437.345
AO-85 21 Nov 09:42:49 09:45:22 15° 13° (NNE) 09:48:01 145.980
UWE-3 21 Nov 09:47:21 09:49:54 16° 301° (WNW) 09:52:26 435.000/436.395/437.385
PRISM 21 Nov 09:58:11 10:02:18 69° 257° (WSW) 10:06:28 437.425
PCSat 21 Nov 09:58:30 10:03:34 41° 244° (WSW) 10:08:36 145.827
FO-29 21 Nov 10:04:10 10:08:16 16° 281° (W) 10:12:36 435.910
AAUSAT CUBESAT 2 21 Nov 10:12:08 10:13:41 12° 305° (NW) 10:15:14 437.432
DUCHIFAT 1 21 Nov 10:14:41 10:17:49 21° 61° (ENE) 10:20:58 145.980
EO-88 21 Nov 10:16:13 10:19:50 58° 101° (E) 10:23:27 145.990 - 145.960
Max Valier Satellite 21 Nov 10:17:18 10:20:59 85° 106° (ESE) 10:24:39 145.860
HO-68 21 Nov 10:18:51 10:23:21 18° 318° (NW) 10:27:49 435.675
EO-79 21 Nov 10:21:06 10:24:45 29° 64° (ENE) 10:28:25 145.935-145.965
NANOSAT C BR1 21 Nov 10:24:33 10:28:09 28° 64° (ENE) 10:31:46 145.865
AIST 2D 21 Nov 10:27:58 10:31:26 78° 75° (ENE) 10:34:55 435.315
AO-73 21 Nov 10:29:57 10:31:50 13° 304° (WNW) 10:33:42 145.935
UNISAT 6 21 Nov 10:32:24 10:35:16 16° 271° (W) 10:38:07 437.425
BEESAT 2 21 Nov 10:35:52 10:39:20 26° 32° (NNE) 10:42:46 435.950
POLYITAN 1 21 Nov 10:36:00 10:39:56 38° 67° (ENE) 10:43:53 437.675
TIGRISAT 21 Nov 10:36:52 10:39:41 16° 271° (W) 10:42:29 435.000
LO-87 21 Nov 10:42:08 10:44:32 17° 91° (E) 10:46:55 145.935 - 145.965
DELFI C3 21 Nov 10:43:01 10:46:47 40° 291° (WNW) 10:50:31 145.870
Oscar 11 21 Nov 10:46:24 10:48:36 14° 304° (NW) 10:50:48 .
Oscar 19 21 Nov 10:52:19 10:54:40 13° 50° (NE) 10:57:01 437.125/150
QB50P2 21 Nov 10:58:57 11:03:11 70° 72° (ENE) 11:07:25 145.880/145.840
BEESAT 3 21 Nov 11:02:19 11:06:20 88° 50° (NE) 11:10:15 437.485
BUGSAT 1 21 Nov 11:08:06 11:11:10 20° 61° (ENE) 11:14:13 437.445
Gurwin Techsat 1B 21 Nov 11:15:13 11:18:18 16° 51° (NE) 11:21:24 435.225
AO-85 21 Nov 11:22:55 11:27:01 33° 36° (NE) 11:31:22 145.980
SPROUT 21 Nov 11:39:42 11:42:12 15° 89° (E) 11:44:41 437.525
AO-7 21 Nov 11:43:12 11:48:11 18° 33° (NNE) 11:53:12 .
DUCHIFAT 1 21 Nov 11:49:03 11:53:10 53° 260° (W) 11:57:18 145.980
EO-88 21 Nov 11:50:54 11:53:04 15° 300° (WNW) 11:55:15 145.990 - 145.960
Max Valier Satellite 21 Nov 11:52:58 11:54:13 11° 302° (WNW) 11:55:27 145.860
ESTCUBE 1 21 Nov 11:54:52 11:59:25 72° 103° (ESE) 12:03:57 437.505/2401.250
EO-79 21 Nov 11:56:30 12:00:25 36° 263° (W) 12:04:21 145.935-145.965
